This is the latest recevied weather packets stored in our database for station/object K9MWD. If no packets are shown the sender has not sent any weather packets the latest 10 day(s).
| Time | Temp. | Humidity | Pressure | Rain* | Wind** | Luminosity | Snow |
|---|---|---|---|---|---|---|---|
| 1788180996 | 25.56° C | 79% | 1016.4 hPa | 0 mm | - | 77 W/m² | - |
| 1788180693 | 25.56° C | 79% | 1016.6 hPa | 0 mm | - | 67 W/m² | - |
| 1788180388 | 25.56° C | 79% | 1016.6 hPa | 0 mm | - | 54 W/m² | - |
| 1788180084 | 25° C | 79% | 1016.8 hPa | 0 mm | - | 46 W/m² | - |
| 1788179784 | 25° C | 79% | 1016.8 hPa | 0 mm | - | 38 W/m² | - |
| 1788179483 | 25° C | 80% | 1016.7 hPa | 0 mm | - | 30 W/m² | - |
| 1788179182 | 24.44° C | 80% | 1016.5 hPa | 0 mm | - | 25 W/m² | - |
| 1788178879 | 24.44° C | 81% | 1016.5 hPa | 0 mm | - | 19 W/m² | - |
| 1788178578 | 24.44° C | 81% | 1016.5 hPa | 0 mm | - | 14 W/m² | - |
| 1788178274 | 24.44° C | 80% | 1016.4 hPa | 0 mm | - | 10 W/m² | - |
| 1788177969 | 24.44° C | 80% | 1016.2 hPa | 0 mm | - | 6 W/m² | - |
| 1788177664 | 24.44° C | 80% | 1015.9 hPa | 0 mm | - | 4 W/m² | - |
| 1788177360 | 24.44° C | 80% | 1016.1 hPa | 0 mm | - | 2 W/m² | - |
| 1788177055 | 25° C | 79% | 1016.1 hPa | 0 mm | - | 1 W/m² | - |
| 1788176754 | 25° C | 79% | 1015.7 hPa | 0 mm | - | 0 W/m² | - |
| 1788176449 | 25° C | 78% | 1015.9 hPa | 0 mm | - | 0 W/m² | - |
| 1788176148 | 25° C | 78% | 1015.8 hPa | 0 mm | - | 0 W/m² | - |
| 1788175844 | 25° C | 78% | 1015.7 hPa | 0 mm | - | 0 W/m² | - |
| 1788175543 | 25.56° C | 77% | 1015.7 hPa | 0 mm | - | 0 W/m² | - |
| 1788175238 | 25.56° C | 76% | 1015.7 hPa | 0 mm | - | 0 W/m² | - |
| 1788174935 | 25.56° C | 76% | 1015.5 hPa | 0 mm | - | 0 W/m² | - |
| 1788174630 | 25.56° C | 76% | 1015.5 hPa | 0 mm | - | 0 W/m² | - |
| 1788174325 | 25.56° C | 77% | 1015.7 hPa | 0 mm | - | 0 W/m² | - |
| 1788174020 | 25.56° C | 76% | 1015.5 hPa | 0 mm | - | 0 W/m² | - |
| 1788173720 | 25.56° C | 76% | 1015.7 hPa | 0 mm | - | 0 W/m² | - |
* Rain latest hour (hover to see other rain measurements)
** Current wind speed in m/s (hover to see current wind gust speed)